GEFSGL_con_probscp_228.txt.gz
Probability
23 23 19 15 14 11 8 7 6 5 5 6 6 5 4 2 1 1 0 0 0 0 0 0 0 1 2 2 1 1 1 1 1 0 0 0 0 0 0 0 0 0 0
24 23 19 15 13 10 7 6 4 3 3 5 6 6 5 4 3 2 1 0 0 0 1 1 1 2 3 3 4 4 4 3 2 1 0 0 0 0 0 0 0 0 0
24 23 20 16 13 10 6 4 1 1 2 4 5 6 6 5 4 3 2 1 1 1 2 2 3 4 4 5 7 8 7 4 3 1 1 1 1 1 1 0 0 0 0
23 23 21 17 13 9 5 2 1 1 2 3 4 5 6 6 5 4 3 2 2 2 2 2 4 5 5 5 7 8 8 5 3 3 2 2 3 2 1 0 0 0 0
20 20 20 17 13 8 4 2 0 1 3 4 4 5 5 6 6 5 4 3 3 3 2 2 4 6 5 4 4 5 6 5 4 3 3 3 3 3 1 0 0 0 0
17 17 17 16 12 8 4 2 2 3 5 6 6 6 6 6 5 4 3 3 3 3 4 5 6 6 5 3 2 2 2 4 4 4 3 3 3 3 2 0 0 0 0
17 16 16 16 14 8 5 3 3 5 7 8 8 8 7 6 3 1 1 2 2 3 5 7 7 7 6 4 2 1 1 2 3 3 3 3 3 3 2 0 0 0 1
17 17 16 16 13 9 5 3 4 5 7 7 8 8 8 5 2 0 0 1 2 4 5 6 6 5 5 4 3 3 2 2 2 2 2 2 2 2 1 0 0 1 2
18 17 15 13 11 9 6 4 4 5 6 6 7 7 7 4 1 0 0 1 2 3 3 4 3 3 2 2 2 3 3 2 1 1 1 1 1 1 1 0 0 1 2
18 16 13 11 10 8 7 6 6 6 6 6 6 6 6 3 1 0 0 0 1 2 2 2 1 1 1 0 1 2 2 1 0 0 0 0 0 0 0 1 1 2 3
17 16 15 13 11 9 8 8 7 6 5 4 5 5 4 3 1 1 0 0 1 2 2 2 1 0 0 0 0 1 1 0 0 0 0 0 0 0 0 1 2 2 3
17 16 16 15 14 12 10 8 7 6 5 4 4 3 3 3 2 1 0 0 1 1 2 1 0 0 0 0 0 0 0 0 0 0 0 0 0 0 0 1 1 1 2
14 15 15 14 14 14 11 8 7 6 6 5 3 2 2 2 1 1 0 0 0 0 0 0 0 0 0 0 0 0 0 0 0 0 0 0 0 0 0 0 0 0 1
12 14 14 13 12 12 10 7 6 6 6 5 3 1 1 0 0 0 0 0 0 0 0 0 0 0 0 0 0 0 0 0 0 0 0 0 0 0 0 0 0 0 0
12 13 13 11 10 9 8 6 4 4 3 3 2 1 0 0 0 0 0 0 0 0 0 0 0 0 0 0 0 0 0 0 0 0 0 0 0 0 0 0 0 0 0
11 11 10 9 7 7 7 4 2 1 1 1 1 1 0 0 0 0 0 0 0 0 0 0 0 0 0 0 0 0 0 0 0 0 0 0 0 0 0 0 0 0 0
7 7 6 6 6 6 5 3 1 0 0 0 0 0 0 0 0 0 0 0 0 0 0 0 0 0 0 0 0 0 0 0 0 0 0 0 0 0 0 0 0 0 0
4 4 4 4 5 4 4 3 2 1 1 0 0 0 0 0 0 0 0 0 0 0 0 0 0 0 0 0 0 0 0 0 0 0 0 0 0 0 0 0 0 0 0
3 3 3 3 4 3 3 4 3 2 1 0 0 0 0 0 0 0 0 0 0 0 0 0 0 0 0 0 0 0 0 0 0 0 0 0 0 0 0 0 0 0 0
3 3 3 3 3 3 3 3 2 1 1 0 0 0 0 0 0 0 0 0 0 0 0 0 0 0 0 0 0 0 0 0 0 0 0 0 0 0 0 0 0 0 0
3 3 2 2 2 2 2 2 1 0 0 0 0 0 0 0 0 0 0 0 0 0 0 0 0 0 0 0 0 0 0 0 0 0 0 0 0 0 0 0 0 0 0
2 1 1 1 1 1 1 0 0 0 0 0 0 0 0 0 0 0 0 0 0 0 0 0 0 0 0 0 0 0 0 0 0 0 0 0 0 0 0 0 0 0 0
1 0 0 0 0 0 0 0 0 0 0 0 0 0 0 0 0 0 0 0 0 0 0 0 0 0 0 0 0 0 0 0 0 0 0 0 0 0 0 0 0 0 0
0 0 0 0 0 0 0 0 0 0 0 0 0 0 0 0 0 0 0 0 0 0 0 0 0 0 0 0 0 0 0 0 0 0 0 0 0 0 0 0 0 0 0
0 0 0 0 0 0 0 0 0 0 0 0 0 0 0 0 0 0 0 0 0 0 0 0 0 0 0 0 0 0 0 0 0 0 0 0 0 0 0 0 0 0 0
0 0 0 0 0 0 0 0 0 0 0 0 0 0 0 0 0 0 0 0 0 0 0 0 0 0 0 0 0 0 0 0 0 0 0 0 0 0 0 0 0 0 0

GEFSGL_con_probscp_234.txt.gz
Probability
26 27 27 27 28 30 33 31 24 19 16 16 19 18 14 11 8 7 6 6 6 6 6 6 8 10 13 16 18 17 14 11 10 10 11 13 15 16 14 12 12 12 12
33 33 32 32 31 31 32 29 25 21 18 17 17 15 11 9 8 8 8 7 7 8 9 10 10 11 13 15 16 15 13 13 13 13 13 12 14 14 14 13 11 10 11
39 41 41 38 35 32 30 29 27 23 19 15 12 9 8 8 9 10 12 12 12 13 14 14 14 13 14 15 15 14 13 13 16 16 14 14 13 14 14 13 13 13 12
43 44 45 41 36 32 31 30 26 21 15 11 8 6 7 9 9 11 13 15 15 16 17 17 17 15 13 12 12 13 13 14 16 16 15 15 15 15 15 15 16 16 16
45 44 42 37 33 31 32 30 24 17 12 8 5 4 6 8 8 8 10 12 14 15 16 17 17 14 10 8 8 9 12 14 16 16 16 16 16 16 15 15 16 16 18
44 41 35 31 30 29 28 26 21 15 12 8 6 5 5 6 6 5 5 9 11 14 15 16 15 13 9 6 4 4 7 11 13 14 15 14 15 15 15 14 13 13 13
39 35 31 29 29 25 23 22 19 14 12 10 9 8 8 7 4 2 2 5 9 13 15 16 15 12 10 8 5 4 4 5 7 10 11 11 12 14 14 12 10 9 9
32 30 28 28 28 25 23 23 21 17 14 12 12 12 11 8 4 1 1 4 9 12 13 14 14 12 9 8 8 7 6 4 4 5 7 7 8 10 11 9 7 7 7
28 26 25 26 26 24 24 26 24 21 17 14 14 14 12 9 5 2 2 6 9 10 10 9 10 9 6 5 7 8 6 5 4 3 4 4 5 5 5 5 4 4 4
24 23 22 24 24 23 25 26 24 22 19 16 15 14 13 10 5 2 3 7 10 10 9 7 5 4 3 2 4 5 4 3 3 3 3 3 3 3 2 2 2 2 2
20 22 23 23 22 23 25 25 23 22 21 19 16 13 12 10 6 3 3 6 8 9 8 7 5 2 1 0 1 2 1 1 2 4 4 4 4 4 3 2 2 2 2
18 22 24 23 22 23 24 24 22 22 21 20 16 13 12 11 7 3 2 2 5 8 8 6 4 1 0 0 0 0 0 0 2 4 5 5 5 4 3 2 1 2 2
16 19 21 20 20 21 23 23 21 20 19 18 15 12 12 12 10 5 2 1 2 5 5 3 1 0 0 0 0 0 0 1 2 3 4 4 4 3 2 2 2 2 2
14 16 17 17 17 19 20 20 19 17 16 15 13 12 12 12 10 6 4 3 2 3 3 1 0 0 0 0 0 0 0 1 2 2 3 3 3 3 2 2 2 2 2
15 16 15 15 14 15 15 15 13 12 11 11 11 10 10 11 8 5 4 3 3 3 3 1 0 0 0 0 0 0 0 1 1 1 2 2 2 2 1 1 1 1 1
16 16 15 12 11 11 11 11 9 7 6 6 7 8 8 7 4 2 1 1 2 2 2 1 0 0 0 0 0 0 0 0 0 0 1 1 0 0 0 0 0 0 0
13 13 12 10 8 8 9 10 9 6 3 3 3 5 5 3 1 0 0 0 0 0 1 1 0 0 0 0 0 0 0 0 0 0 0 0 0 0 0 0 0 0 0
10 10 9 8 7 7 8 9 8 7 5 4 2 2 1 0 0 0 0 0 0 0 0 0 0 0 0 0 0 0 0 0 0 0 0 0 0 1 0 0 0 0 0
7 7 7 6 6 7 7 7 6 5 5 4 2 1 0 0 0 0 0 0 0 0 0 0 1 1 0 1 1 0 0 0 0 0 0 0 0 0 0 0 0 0 0
6 6 6 6 6 6 6 5 4 4 5 4 2 1 0 0 0 0 0 0 0 0 1 1 2 2 1 1 1 0 0 0 0 0 0 0 0 0 0 0 0 0 0
5 6 6 6 6 6 5 4 3 3 4 3 2 1 0 0 0 0 0 0 0 0 1 2 2 2 2 1 0 0 0 0 0 0 0 0 0 0 0 0 0 0 0
4 5 5 5 4 4 3 1 1 1 1 1 1 0 0 0 0 0 0 0 0 0 1 1 1 1 1 0 0 0 0 0 0 0 0 0 0 1 1 1 0 0 0
4 4 3 2 2 2 1 0 0 0 0 0 0 0 0 0 0 0 0 0 0 0 0 0 0 0 0 0 0 0 0 0 0 1 1 2 2 2 2 2 1 0 0
3 2 1 0 0 0 0 0 0 0 0 0 0 0 0 0 0 0 0 0 0 0 0 0 0 0 0 0 0 0 0 0 0 1 2 2 2 2 2 2 1 0 0
2 1 0 0 0 0 0 0 0 0 0 0 0 0 0 0 0 0 0 0 0 0 0 0 0 0 0 0 0 0 0 0 0 1 1 1 1 1 1 1 0 0 0
1 0 0 0 0 0 0 0 0 0 0 0 0 0 0 0 0 0 0 0 0 0 0 0 0 0 0 0 0 0 0 0 0 0 0 0 0 0 0 0 0 0 0

GEFSGL_con_probscp_240.txt.gz
Probability
52 48 48 51 51 47 45 44 43 40 37 34 32 28 23 19 16 14 12 9 10 10 7 6 7 12 14 10 6 4 3 3 3 3 3 5 8 8 6 7 8 7 7
55 52 52 54 54 50 47 45 45 44 39 35 32 28 22 17 15 14 12 9 9 9 8 6 8 11 12 9 6 5 3 3 3 3 3 5 9 9 8 7 6 5 5
58 57 57 59 59 55 50 47 46 44 40 34 30 26 21 15 12 11 10 9 9 9 8 8 10 12 12 9 8 7 5 4 4 4 3 5 7 9 10 8 5 3 3
62 61 60 61 60 56 52 48 46 43 38 32 27 23 17 12 10 9 8 9 10 10 10 10 11 13 12 10 8 7 6 6 7 6 5 4 6 9 11 10 6 5 5
65 63 61 59 56 53 50 48 46 43 38 33 26 18 12 9 7 6 6 7 9 11 10 10 11 12 11 8 5 4 4 5 7 7 7 5 6 10 13 11 8 7 7
63 62 59 56 53 49 47 46 46 42 37 33 26 18 12 8 5 3 2 3 6 9 9 10 12 12 9 5 2 1 1 2 4 6 6 5 5 9 12 11 8 7 7
59 56 53 51 50 48 45 45 43 38 33 30 26 21 16 10 4 1 0 1 2 6 8 11 12 11 9 7 4 2 1 1 1 3 4 4 4 6 9 10 8 6 6
53 50 46 45 46 46 45 44 40 34 31 30 28 23 18 12 5 1 0 0 1 4 8 10 11 10 9 8 6 3 2 1 0 1 2 2 3 4 5 7 6 5 5
47 44 41 41 43 43 42 40 37 34 31 29 26 22 18 13 7 1 0 1 3 7 9 10 9 9 7 6 6 5 3 2 1 1 1 1 1 1 2 2 2 3 3
45 43 40 39 39 37 37 36 35 34 31 28 24 21 18 14 8 2 1 3 7 11 13 11 8 5 4 4 5 6 4 3 3 2 1 0 0 0 0 0 0 1 1
44 42 39 37 33 32 33 34 33 32 30 27 24 21 19 16 10 3 1 3 8 12 14 13 8 3 1 1 2 3 3 3 3 3 2 1 0 0 0 0 0 0 0
41 38 36 32 27 26 29 30 29 28 27 26 24 21 19 17 12 4 1 2 5 10 12 11 7 2 0 0 0 1 1 1 2 3 2 1 0 0 0 0 0 0 0
36 32 29 25 21 20 22 23 23 23 24 23 22 19 18 18 13 6 2 1 2 5 7 6 4 1 0 0 0 0 0 0 1 2 2 1 0 0 0 0 0 0 0
29 26 22 18 16 15 16 16 17 18 20 19 18 16 17 17 14 8 5 2 2 2 2 2 1 0 0 0 0 0 0 0 0 1 1 0 0 0 0 0 0 0 0
25 22 17 13 12 11 12 11 11 12 13 12 11 11 12 13 11 8 6 5 4 3 1 0 0 0 0 0 0 0 0 0 0 0 0 0 0 0 0 0 0 0 0
25 22 16 12 10 9 9 8 6 6 5 4 4 5 5 6 5 4 4 4 3 2 1 1 1 1 1 1 1 0 0 1 1 0 0 0 0 0 0 0 0 0 0
24 21 15 11 9 9 8 7 5 4 2 1 1 1 1 1 1 1 2 2 1 1 2 3 4 3 2 2 1 0 1 2 2 1 0 0 0 0 0 0 0 0 0
19 16 12 9 8 8 8 7 6 5 5 3 1 0 0 0 0 0 1 1 1 2 4 5 5 4 3 3 1 0 1 2 3 2 1 0 0 0 0 0 0 0 0
14 11 8 7 7 7 7 7 7 7 6 4 2 0 0 0 0 0 1 2 2 3 4 6 5 4 3 2 1 0 1 2 2 2 1 0 0 0 0 0 0 0 0
11 8 7 7 7 7 7 7 8 8 7 5 2 1 1 1 0 0 1 2 2 2 3 4 3 3 2 1 0 0 0 1 1 1 0 0 0 0 0 0 0 0 0
7 6 6 8 9 9 9 9 8 8 6 4 2 1 1 1 0 0 0 1 1 0 1 1 1 1 1 0 0 0 0 0 0 0 0 0 0 0 0 0 0 0 0
5 5 6 9 10 10 9 8 8 6 5 3 1 0 1 1 0 0 0 0 0 0 0 0 0 0 0 0 0 0 0 0 0 0 0 0 0 0 0 0 0 0 0
5 4 4 7 8 7 6 6 6 5 4 2 1 0 0 0 0 0 0 0 0 0 0 0 0 0 0 0 0 0 0 0 0 0 0 0 0 0 0 0 0 0 0
6 5 4 5 5 4 3 4 4 3 2 1 0 0 0 0 0 0 0 0 0 0 0 0 0 0 0 0 0 0 0 0 1 0 0 0 0 0 0 0 0 1 1
6 6 5 5 4 2 2 2 2 1 1 0 0 0 0 0 0 0 0 0 0 0 0 0 0 0 0 0 0 0 0 0 0 0 0 0 0 0 0 0 0 0 0
6 6 6 5 3 2 1 1 1 0 0 0 0 0 0 0 0 0 0 0 0 0 0 0 0 0 0 0 0 0 0 0 0 0 0 0 0 0 0 0 0 0 0

GEFSGL_con_probscp_246.txt.gz
Probability
36 34 34 34 33 29 24 20 18 17 15 14 12 11 10 8 5 4 3 2 1 0 0 0 0 0 0 0 0 0 0 0 0 0 0 0 0 0 0 0 0 0 0
39 37 36 36 35 33 28 22 18 17 15 13 12 11 10 8 6 4 3 2 1 1 1 0 0 0 0 0 0 0 1 1 1 1 1 1 1 0 0 0 0 0 0
45 43 40 38 37 37 31 25 21 18 16 14 12 11 10 8 6 5 5 4 3 2 2 1 1 1 1 1 1 1 2 2 2 2 2 2 2 1 0 0 0 0 0
48 47 43 38 37 35 30 26 23 19 16 14 12 11 9 8 7 6 7 6 4 3 3 3 3 3 3 4 5 4 3 3 3 3 3 3 2 1 0 0 0 0 0
51 48 43 37 32 29 26 24 20 16 13 11 10 9 8 7 6 5 6 5 3 3 3 3 4 5 6 6 5 4 3 3 3 3 2 1 1 0 0 0 0 0 0
51 47 41 35 28 23 21 20 16 12 10 10 9 9 7 5 3 2 3 3 1 1 2 3 4 6 6 4 2 1 1 2 2 2 1 0 0 0 0 0 0 0 0
46 42 37 32 27 23 21 18 16 14 14 13 12 11 8 5 3 1 1 1 0 0 1 1 3 5 5 3 1 1 0 0 0 0 0 0 0 0 0 0 0 0 0
38 35 31 29 27 25 23 21 21 20 18 17 16 14 11 8 4 1 1 1 1 0 0 0 2 3 4 3 2 1 0 0 0 0 0 0 0 0 0 0 0 0 0
32 29 26 25 25 24 24 23 22 20 18 18 18 16 13 10 5 1 1 1 1 0 0 0 2 3 2 2 2 2 0 0 0 0 0 0 0 0 0 0 0 0 0
28 26 23 22 22 23 23 23 21 17 13 13 14 13 12 10 5 1 0 1 1 0 1 1 2 3 1 1 2 1 0 0 0 0 0 0 0 0 0 0 0 0 0
24 22 19 18 19 21 22 22 19 15 10 8 7 7 8 8 4 1 0 0 0 0 1 2 3 2 1 0 1 1 0 0 0 1 1 1 1 0 0 0 0 0 0
17 16 15 15 16 17 18 18 16 12 9 7 5 4 5 5 3 1 0 0 0 0 1 3 3 2 1 0 0 0 0 0 1 2 2 2 2 1 0 0 0 0 0
11 11 11 11 12 13 13 13 12 10 9 7 4 4 4 3 1 0 0 0 0 0 1 2 2 1 0 0 0 0 0 0 1 2 3 3 3 2 1 1 1 0 0
9 8 7 8 9 9 9 8 8 8 8 6 4 4 4 2 1 0 0 0 0 0 1 1 1 0 0 0 0 0 0 0 0 1 2 2 2 2 2 2 2 1 0
10 9 6 6 6 5 5 5 4 5 5 4 3 3 3 2 1 0 0 0 0 0 0 0 0 0 0 0 0 0 0 0 0 0 1 1 1 1 1 1 1 1 0
10 8 7 5 4 3 2 1 1 1 1 1 1 1 1 1 1 0 0 0 0 0 0 0 0 0 0 0 0 0 0 0 0 0 0 0 0 0 0 0 0 0 0
8 7 6 4 4 3 2 1 1 0 0 0 0 0 0 0 0 0 0 0 0 0 0 0 0 0 0 0 0 0 0 0 0 0 0 0 0 0 0 0 0 0 0
7 6 5 4 4 4 4 4 2 1 0 0 0 0 0 0 0 0 0 0 0 0 0 0 0 0 0 0 0 0 0 0 0 0 0 0 0 0 0 0 0 0 0
8 6 5 4 4 4 5 5 3 2 1 1 1 1 0 0 0 0 0 0 0 0 0 0 0 0 0 0 0 0 0 0 0 0 0 0 0 0 0 0 0 0 0
8 7 6 6 5 4 5 5 4 3 2 2 1 1 0 0 0 0 0 0 0 0 0 0 0 0 0 0 0 0 0 0 0 0 0 0 0 0 0 0 0 0 0
8 7 7 6 4 3 2 3 3 3 3 2 1 1 0 0 0 0 0 0 0 0 0 0 0 0 0 0 0 0 0 0 0 0 0 0 0 0 0 0 0 0 0
8 7 6 5 3 1 0 1 1 3 3 2 1 1 1 0 0 0 0 0 0 0 0 0 0 0 0 0 0 0 0 0 0 0 0 0 0 0 0 0 0 0 0
6 6 5 4 3 1 1 0 1 2 3 2 1 1 2 1 0 0 0 0 0 0 0 0 0 0 0 0 0 0 0 0 0 0 0 0 0 0 0 0 0 0 0
4 4 4 3 3 3 2 1 0 1 2 1 0 1 2 1 0 0 0 0 0 0 0 0 0 0 0 0 0 0 0 0 0 0 0 0 0 0 0 0 0 0 0
3 3 3 3 3 3 2 1 0 1 1 1 0 0 1 1 0 0 0 0 0 0 0 0 0 0 0 0 0 0 0 0 0 0 0 0 0 0 0 0 0 0 0
2 3 3 3 3 3 1 0 0 0 1 0 0 0 0 1 0 0 0 0 0 0 0 0 0 0 0 0 0 0 0 0 0 0 0 0 0 0 0 0 0 0 0

GEFSGL_con_probscp_252.txt.gz
Probability
17 18 18 16 15 17 19 20 18 13 9 7 5 4 5 6 6 6 5 4 3 3 3 1 0 0 0 0 0 0 0 0 0 1 3 3 2 1 0 0 0 0 0
17 18 17 15 16 19 21 22 20 15 10 7 5 5 6 6 6 6 4 3 3 3 3 2 1 0 0 0 0 0 0 1 1 2 3 3 3 2 1 0 0 0 0
20 21 18 16 18 20 21 22 20 14 8 6 6 6 6 6 6 6 4 3 3 3 3 2 1 0 0 0 0 0 1 2 3 3 3 3 3 2 1 0 0 0 0
26 26 23 21 19 17 16 17 16 11 6 4 5 6 6 6 6 5 4 3 3 3 3 2 1 0 0 1 0 0 2 4 4 3 3 3 2 1 0 0 0 0 0
32 30 27 24 20 15 13 14 13 9 6 5 4 4 4 5 5 4 3 3 3 3 2 1 0 0 0 0 0 0 1 2 3 3 3 2 1 0 0 0 1 0 0
36 32 27 23 20 17 16 15 12 9 8 7 5 4 4 4 4 3 3 3 3 3 2 1 1 0 1 1 0 0 0 1 1 2 3 2 1 1 1 2 2 1 0
33 30 25 20 18 17 18 16 12 10 9 9 8 6 5 4 3 3 3 3 4 4 3 2 1 1 2 2 1 0 0 0 0 1 2 1 1 1 2 3 3 2 1
28 25 21 18 17 18 18 16 12 10 10 9 9 8 6 4 3 2 2 3 4 3 2 1 1 1 2 2 1 0 0 0 0 0 1 1 0 1 2 2 2 2 2
22 20 18 17 18 19 18 17 14 13 12 10 9 8 7 4 2 1 1 2 3 2 2 2 2 2 2 1 1 0 0 0 0 0 0 0 0 0 1 1 1 2 3
15 15 15 16 17 17 16 15 15 14 13 12 10 9 7 4 1 0 0 1 2 3 3 3 3 1 1 1 1 0 0 0 0 0 0 0 0 0 0 0 1 2 2
9 10 12 13 14 14 13 13 14 13 12 11 10 8 6 4 2 0 0 1 2 2 2 2 2 1 0 0 0 0 0 0 0 0 0 0 0 0 0 1 1 1 1
5 6 8 10 11 13 13 12 12 11 10 9 8 6 4 3 1 0 0 0 1 1 1 1 1 0 0 0 0 0 0 0 0 0 0 0 0 0 0 1 2 1 0
2 2 3 6 9 11 12 12 11 10 9 8 7 6 4 3 1 0 0 0 0 0 0 0 0 0 0 0 0 0 0 0 0 0 0 0 0 0 0 1 1 1 0
2 1 1 3 6 9 9 10 10 10 9 7 7 6 5 3 1 0 0 0 0 0 0 0 0 0 0 0 0 0 0 0 0 0 0 0 0 1 1 1 1 0 0
2 1 1 2 5 6 7 7 7 7 6 5 6 5 4 3 1 0 0 0 0 0 0 0 0 0 0 0 0 0 0 0 0 0 0 0 0 1 1 1 0 0 0
2 2 1 2 4 5 6 5 3 3 2 3 3 3 2 1 1 0 0 0 0 0 0 0 0 0 0 1 1 0 0 0 0 0 0 0 0 0 1 1 0 0 0
2 2 2 2 3 4 5 4 2 1 0 1 1 1 1 0 0 0 0 0 0 0 0 0 0 0 0 1 1 0 0 0 0 0 0 0 0 0 0 0 0 0 0
2 1 1 2 3 3 4 3 3 2 1 1 0 0 0 0 0 0 0 0 0 0 0 0 0 0 0 1 1 0 0 0 0 0 0 0 0 0 0 0 0 0 0
2 1 1 1 2 2 2 1 2 2 2 1 0 0 0 0 0 0 0 0 0 0 0 0 0 0 0 0 0 0 0 0 0 0 0 0 0 0 0 0 0 0 0
3 1 1 1 1 1 0 0 1 1 1 1 0 0 0 0 0 0 0 0 0 0 0 0 0 0 0 0 0 0 0 0 0 0 0 0 0 0 0 0 0 0 0
4 3 2 2 2 1 1 1 0 0 0 0 0 0 0 0 0 0 0 0 0 0 0 0 0 0 0 0 0 0 0 0 0 0 0 0 0 0 0 0 0 0 0
5 4 3 3 3 3 2 2 1 0 0 0 0 0 0 0 0 0 0 0 0 0 0 0 0 0 0 0 0 0 0 0 0 0 0 0 0 0 0 0 0 0 0
4 3 3 3 3 2 3 3 2 1 1 0 0 0 0 0 0 0 0 0 0 0 0 0 0 0 0 0 0 0 0 0 0 0 0 0 0 0 0 0 0 0 0
3 2 2 2 1 1 1 2 2 2 1 1 1 0 0 0 0 0 1 0 0 0 0 0 0 0 0 0 0 0 0 0 0 0 0 0 0 0 0 0 0 0 0
3 2 2 1 0 0 0 1 1 1 1 1 1 1 1 1 0 0 1 1 0 0 0 0 0 0 0 0 0 0 0 0 0 0 0 0 0 0 0 0 0 0 0
3 3 2 1 0 0 0 0 0 0 0 1 1 2 2 2 1 0 1 1 1 0 0 0 0 0 0 0 0 0 0 0 0 0 0 0 0 0 0 0 0 0 0

GEFSGL_con_probscp_258.txt.gz
Probability
23 26 30 33 34 34 34 34 34 33 30 27 23 17 12 10 10 9 8 7 8 9 10 11 10 8 9 10 10 10 10 9 7 5 3 4 4 3 3 3 2 1 0
23 25 30 34 36 36 36 35 35 35 33 31 25 19 15 13 12 11 10 8 9 10 10 11 9 7 7 8 8 8 8 7 6 5 4 4 4 3 4 3 1 1 0
23 24 29 34 37 38 37 35 34 36 36 33 28 22 18 16 15 14 12 10 11 11 10 10 8 6 6 7 8 7 6 6 6 5 4 4 3 4 5 3 2 1 1
23 25 30 35 38 38 37 35 31 30 30 28 24 21 17 16 16 15 15 13 13 12 11 10 8 6 6 8 9 9 8 7 7 5 4 3 3 4 4 4 3 1 0
26 28 32 37 38 37 36 33 28 23 19 18 16 14 14 14 14 14 14 14 14 14 13 11 8 6 7 7 7 8 7 6 5 4 3 2 3 4 4 5 4 2 1
32 32 34 36 37 35 32 29 24 18 12 10 10 10 10 11 11 10 10 11 12 13 13 11 9 6 5 4 3 3 3 2 2 2 1 1 2 4 5 6 5 4 3
32 31 32 34 34 31 28 25 21 17 13 11 11 11 10 10 9 6 6 8 10 11 11 11 10 7 5 3 2 1 1 1 1 2 1 1 1 4 6 7 6 6 8
29 28 29 31 30 27 24 23 21 18 16 15 15 15 13 11 7 4 3 6 8 8 9 11 11 10 7 4 3 3 2 2 3 3 2 1 1 3 6 6 6 7 8
27 26 26 27 26 23 22 22 21 19 18 18 18 19 18 13 7 3 2 5 7 7 7 9 10 9 6 4 5 5 3 3 3 3 2 1 1 2 4 4 4 5 5
29 27 25 23 22 22 22 22 20 18 17 18 19 20 19 15 8 3 3 7 9 9 8 8 8 7 4 2 4 6 5 4 4 4 3 2 2 1 2 3 3 4 4
27 25 22 19 18 20 21 20 18 17 17 18 18 17 16 13 8 4 3 7 10 10 9 9 8 4 1 1 2 4 5 4 5 5 5 4 3 2 1 2 3 4 4
22 20 17 15 14 15 16 16 16 16 16 16 16 15 13 11 8 5 3 3 6 7 8 7 5 3 1 0 1 2 2 3 4 6 7 6 5 4 3 3 3 4 5
17 16 14 12 11 11 12 12 13 15 15 14 14 13 13 12 9 6 3 2 2 5 5 3 2 1 0 0 0 0 1 2 3 4 5 6 5 5 5 4 3 3 4
15 13 11 11 10 10 10 11 12 14 14 13 13 13 13 12 8 5 4 2 2 3 4 3 3 2 1 1 1 1 1 2 4 5 6 6 5 4 5 4 3 2 1
14 12 10 9 8 8 8 9 10 10 9 9 10 11 12 9 5 3 2 2 2 3 4 5 5 4 4 4 3 3 3 3 5 8 9 7 4 3 4 4 3 1 1
14 12 10 8 7 6 6 6 6 5 4 3 4 6 7 6 3 1 0 1 1 1 3 5 5 4 5 5 4 4 5 5 5 7 9 7 4 3 2 3 2 1 2
13 11 9 8 7 6 6 5 4 3 2 1 1 1 2 2 1 0 0 0 0 0 1 3 3 4 5 5 4 4 5 5 6 7 7 6 3 1 1 1 1 1 2
12 9 7 6 6 6 6 6 5 3 3 2 1 0 0 0 0 0 0 0 0 0 1 2 3 4 4 4 3 4 5 6 7 8 7 6 4 1 1 0 0 0 1
11 8 6 5 5 6 7 6 4 3 3 3 2 1 0 0 1 1 0 1 2 1 1 1 2 3 4 4 5 5 6 7 8 8 6 5 3 2 2 1 0 0 0
12 8 6 6 6 7 7 6 5 4 4 4 3 2 0 0 1 1 1 2 3 3 2 1 1 2 3 5 6 7 7 7 7 5 3 2 2 3 3 2 1 0 0
15 12 8 8 8 9 8 6 5 5 4 4 3 2 0 0 1 1 2 3 3 3 2 1 0 1 2 4 5 6 6 5 4 3 1 0 1 2 3 2 1 0 0
17 15 12 11 10 9 7 6 6 5 5 4 3 2 0 0 0 0 1 2 3 3 2 1 1 0 1 3 5 4 4 4 4 3 1 0 1 2 2 1 0 0 0
14 13 12 12 11 8 6 6 6 6 6 6 5 3 2 1 0 0 0 1 3 3 2 2 1 1 1 3 4 4 4 4 5 4 2 1 0 1 1 0 0 0 0
12 11 10 10 9 6 4 4 6 6 6 6 6 5 4 3 1 0 0 1 2 3 2 2 1 1 2 3 4 3 3 3 3 3 2 2 1 1 1 0 0 0 0
11 9 8 8 6 4 3 3 4 5 5 5 5 4 3 2 0 0 0 1 2 3 3 2 1 1 1 3 3 3 2 1 1 1 1 2 2 2 1 0 0 0 0
10 8 8 7 5 4 3 3 4 5 5 4 4 3 1 0 0 0 0 1 3 4 4 3 2 1 1 2 3 3 1 0 0 0 0 1 1 1 1 0 0 0 0